星链-33600 (STARLINK-33600)

导读

STARLINK-33600是美国SpaceX公司星链项目的卫星,于2025年1月21日发射入轨,属于第二代星链星座组网卫星。它运行在近地轨道,配备先进相控阵天线,支持高速低延迟卫星互联网服务,可助力全球覆盖,特别是为偏远地区提供宽带连接,也进一步扩充了星链在轨规模,提升星座整体通信能力。

基本信息
目录编号:
62772
目录名称:
STARLINK-33600
国际标识:
2025-015Q
轨道中心:
EARTH
卫星名称:
星链-33600
卫星全名:
星链-33600 (STARLINK-33600)
卫星状态:
在轨 (已飞行509 天)
发射日期:
2025-01-21 UTC
国别 :
美国 (US)
星等 :
--
轨道信息
数据来源 国际轨道数据 AOE轨道数据
星历时间 2026-06-13T20:20:29+0800
19小时前
查看轨道信息
2026-06-11T06:00:00+0800
3天前
查看轨道信息
半长轴 6848.81km 6848.888km
偏心率 0.000117 0.0001361
轨道倾角 53.159° 53.157°
近地点辐角 109.287° 67.936°
升交点赤经 237.268° 249.363°
平近点角 250.826° 0.883°
近地点 469.871km 469.818km
远地点 471.475km 471.684km
周期 94.012分钟 94.013分钟
每日圈数 15.317226 15.316965
详细信息
固有亮度:
5
最大亮度:
2.5
卫星平台:
Starlink V1.0
覆盖范围:
全球
运营商:
太空探索技术公司
运营商所在国:
美国
制造商(研发单位):
太空探索技术公司
制造商所在国:
美国
使用方式:
暂无
卫星简介
Starlink 计划是 SpaceX 推出的全球卫星互联网项目,通过发射低轨道卫星,为全球尤其是偏远地区提供高速、低延迟的互联网服务。自 2019 年起,Starlink 已部署数千颗卫星,旨在缩小全球数字鸿沟,推动互联网普及。该项目还为军事、航空等行业提供通信支持,带来广泛经济效益。
2D轨道图
3D轨道图
轨道高度分析图
轨道倾角分析图
轨道综合分析图
查看轨道综合分析图